User: anonymous   Login
Location: Oshawa
(43.9000°N, 78.8670°W)
Time: 14:09:56
(UTC-04:00)
Language:

Cosmos 1821 Rocket - Orbit

View from above orbital plane
View from above orbital plane
View from above satellite
View from above satellite

Ground track
Ground track

The orbit data is extracted from the following two-line orbital elements,

1 17526U 87017B   15243.82373853  .00000033  00000-0  18185-4 0  9991
2 17526  82.9057 169.9330 0040344 351.5563  61.0241 13.76755661416178
Epoch (UTC): 31 August 2015 19:46:11
Eccentricity: 0.0040344
inclination: 82.9057°
perigee height: 946 km
apogee height: 1005 km
right ascension of ascending node: 169.9330°
argument of perigee: 351.5563°
revolutions per day: 13.76755661
mean anomaly at epoch: 61.0241°
orbit number at epoch: 41617

The dashed part of the orbit path shows where the satellite is in the earth's shadow,  

DLR